period_start,C,m1,H,J0,J1,J2,J3,J4,J5,JA,JB,JC,JD,JJ,JK,JN,#
2016-09-12 00:01:23,0.03,1.47,0.00,22.73,26.57,29.47,14.73,47.17,1031.21,2039.66,2952.93,2751.05,3106.99,599.98,605.15,43.25,0000 0000 0000 0000 000000
2016-09-12 00:06:24,-0.01,1.47,0.00,22.73,26.57,29.54,14.71,46.94,1031.14,2039.33,2952.07,2750.99,3106.27,599.66,604.82,43.30,0000 0000 0000 0000 000000
2016-09-12 00:11:25,0.04,1.47,0.00,22.75,26.57,29.52,14.66,46.98,1031.07,2039.16,2951.38,2750.36,3105.90,599.90,604.88,43.35,0000 0000 0000 0000 000000
2016-09-12 00:16:27,0.02,1.47,0.00,22.75,26.59,29.52,14.65,46.94,1031.07,2039.09,2950.74,2750.00,3105.14,599.57,604.48,43.40,0000 0000 0000 0000 000000
2016-09-12 00:21:28,0.02,1.47,0.00,22.79,26.60,29.52,14.60,46.91,1031.00,2039.08,2950.02,2749.73,3104.90,599.67,604.58,43.45,0000 0000 0000 0000 000000
2016-09-12 00:26:29,0.04,1.47,0.00,22.78,26.61,29.55,14.74,47.08,1030.88,2039.05,2949.26,2749.08,3104.14,600.37,605.21,43.50,0000 0000 0000 0000 000000
2016-09-12 00:31:30,0.01,1.47,0.00,22.79,26.62,29.59,14.66,46.86,1030.98,2039.02,2948.78,2748.94,3103.80,599.76,604.64,43.55,0000 0000 0000 0000 000000
2016-09-12 00:36:32,0.05,1.48,0.00,22.82,26.63,29.58,14.71,46.89,1030.91,2039.02,2948.03,2748.18,3103.05,599.90,604.59,43.60,0000 0000 0000 0000 000000
2016-09-12 00:41:33,0.02,1.48,0.00,22.83,26.65,29.63,14.68,46.77,1030.81,2039.00,2947.29,2748.00,3102.82,599.85,604.65,43.65,0000 0000 0000 0000 000000
2016-09-12 00:46:34,0.04,1.48,0.00,22.83,26.65,29.61,14.70,47.08,1030.81,2039.00,2946.79,2747.69,3102.12,600.23,604.83,43.70,0000 0000 0000 0000 000000
2016-09-12 00:51:36,0.03,1.48,0.00,22.75,26.65,29.55,14.73,46.97,1030.82,2039.00,2946.05,2747.05,3101.83,599.96,604.92,43.75,0000 0000 0000 0000 000000
2016-09-12 00:56:37,0.03,1.48,0.00,22.69,26.67,29.46,14.66,46.96,1030.82,2039.00,2945.30,2746.92,3101.07,599.94,604.94,43.80,0000 0000 0000 0000 000000
2016-09-12 01:01:38,0.04,1.49,0.00,22.63,26.66,29.41,14.63,46.87,1030.79,2039.00,2944.76,2746.17,3100.76,599.75,604.83,43.85,0000 0000 0000 0000 000000
2016-09-12 01:06:40,0.02,1.49,0.00,22.57,26.66,29.33,14.70,47.02,1030.78,2039.00,2944.06,2746.00,3100.07,599.68,604.94,43.90,0000 0000 0000 0000 000000
2016-09-12 01:11:41,0.01,1.49,0.00,22.52,26.65,29.32,14.68,46.94,1030.80,2039.00,2943.74,2745.95,3099.95,600.03,605.34,43.95,0000 0000 0000 0000 000000
2016-09-12 01:16:42,0.05,1.49,0.00,22.49,26.65,29.30,14.65,46.86,1030.78,2039.00,2943.02,2745.32,3099.23,600.18,605.56,44.00,0000 0000 0000 0000 000000
2016-09-12 01:21:44,0.02,1.49,0.00,22.49,26.63,29.30,14.73,46.88,1030.78,2039.00,2942.19,2745.00,3098.96,600.09,605.70,44.06,0000 0000 0000 0000 000000
2016-09-12 01:26:45,0.02,1.49,0.00,22.46,26.62,29.29,14.74,46.77,1030.78,2039.00,2941.65,2744.97,3098.34,600.21,605.42,44.11,0000 0000 0000 0000 000000
2016-09-12 01:31:46,0.03,1.49,0.00,22.41,26.61,29.24,14.65,46.88,1030.78,2039.01,2941.10,2744.54,3098.03,599.79,605.33,44.16,0000 0000 0000 0000 000000
2016-09-12 01:36:48,0.01,1.50,0.00,22.41,26.60,29.23,14.69,46.92,1030.78,2039.01,2940.94,2744.02,3097.99,600.03,605.57,44.21,0000 0000 0000 0000 000000
2016-09-12 01:41:49,0.03,1.50,0.00,22.43,26.59,29.28,14.74,46.91,1030.78,2039.02,2940.23,2743.99,3097.47,600.21,605.64,44.26,0000 0000 0000 0000 000000
2016-09-12 01:46:50,0.01,1.50,0.00,22.45,26.57,29.27,14.61,46.90,1030.78,2039.03,2939.91,2743.92,3097.01,599.99,605.48,44.31,0000 0000 0000 0000 000000
2016-09-12 01:51:52,0.04,1.50,0.00,22.47,26.57,29.30,14.66,46.95,1030.78,2039.05,2939.10,2743.24,3096.81,600.11,605.53,44.36,0000 0000 0000 0000 000000
2016-09-12 01:56:53,0.03,1.50,0.00,22.53,26.57,29.33,14.71,46.95,1030.78,2039.06,2938.57,2742.99,3096.07,599.95,605.27,44.41,0000 0000 0000 0000 000000
2016-09-12 02:01:55,0.01,1.50,0.00,22.58,26.57,29.37,14.75,46.94,1030.78,2039.06,2938.02,2742.87,3096.00,600.05,605.32,44.46,0000 0000 0000 0000 000000
2016-09-12 02:06:56,0.06,1.50,0.00,22.63,26.57,29.42,14.75,47.01,1030.78,2039.15,2937.55,2742.23,3095.53,599.91,605.12,44.51,0000 0000 0000 0000 000000
2016-09-12 02:11:58,0.01,1.51,0.00,22.70,26.57,29.45,14.77,46.91,1030.78,2039.11,2936.92,2742.00,3095.01,600.10,605.05,44.56,0000 0000 0000 0000 000000
2016-09-12 02:16:59,0.04,1.51,0.00,22.75,26.57,29.47,14.65,46.88,1030.78,2039.06,2936.22,2741.76,3094.55,599.68,604.49,44.61,0000 0000 0000 0000 000000
2016-09-12 02:22:00,0.02,1.51,0.00,22.76,26.57,29.51,14.73,46.99,1030.78,2039.10,2935.95,2741.10,3094.03,599.91,604.64,44.66,0000 0000 0000 0000 000000
2016-09-12 02:27:01,0.02,1.51,0.00,22.81,26.58,29.50,14.62,46.94,1030.78,2039.10,2935.12,2740.98,3093.69,599.97,604.61,44.71,0000 0000 0000 0000 000000
2016-09-12 02:32:02,0.02,1.51,0.00,22.89,26.60,29.48,14.72,46.98,1030.78,2039.08,2934.72,2740.72,3093.10,600.18,604.77,44.76,0000 0000 0000 0000 000000
2016-09-12 02:37:03,0.03,1.51,0.00,22.95,26.61,29.55,14.62,46.88,1030.78,2039.06,2934.03,2740.04,3092.92,599.92,604.40,44.81,0000 0000 0000 0000 000000
2016-09-12 02:42:04,0.03,1.51,0.00,23.00,26.62,29.58,14.69,46.94,1030.78,2039.01,2933.30,2739.86,3092.16,599.79,604.14,44.86,0000 0000 0000 0000 000000
2016-09-12 02:47:06,0.05,1.52,0.00,23.05,26.65,29.58,14.64,46.96,1030.78,2039.00,2932.62,2739.05,3091.65,600.15,604.36,44.92,0000 0000 0000 0000 000000
2016-09-12 02:52:07,0.03,1.52,0.00,23.09,26.66,29.61,14.75,46.98,1030.78,2039.00,2931.83,2738.80,3091.00,600.18,604.32,44.97,0000 0000 0000 0000 000000
2016-09-12 02:57:08,0.04,1.52,0.00,23.16,26.69,29.63,14.69,46.95,1030.78,2039.00,2931.09,2738.08,3090.34,600.25,604.21,45.02,0000 0000 0000 0000 000000
2016-09-12 03:02:09,0.02,1.52,0.00,23.22,26.71,29.67,14.66,46.86,1030.78,2038.98,2930.33,2737.88,3089.87,599.99,603.91,45.07,0000 0000 0000 0000 000000
2016-09-12 03:07:11,0.05,1.52,0.00,23.22,26.73,29.69,14.68,46.87,1030.78,2038.99,2929.77,2737.15,3089.11,600.14,604.04,45.12,0000 0000 0000 0000 000000
2016-09-12 03:12:12,0.02,1.53,0.00,23.28,26.76,29.70,14.66,46.78,1030.78,2038.93,2929.02,2736.90,3088.68,600.07,603.84,45.17,0000 0000 0000 0000 000000
2016-09-12 03:17:14,0.03,1.53,0.00,23.25,26.78,29.76,14.67,46.90,1030.78,2038.77,2928.15,2736.11,3088.02,600.16,603.94,45.22,0000 0000 0000 0000 000000
2016-09-12 03:22:15,-0.01,1.53,0.00,23.20,26.81,29.78,14.73,47.06,1030.78,2038.33,2927.36,2735.89,3087.27,600.18,604.04,45.27,0000 0000 0000 0000 000000
2016-09-12 03:27:16,0.02,1.53,0.00,23.23,26.83,29.84,14.66,46.81,1030.78,2038.06,2926.78,2735.11,3086.82,599.85,603.64,45.32,0000 0000 0000 0000 000000
2016-09-12 03:32:17,0.04,1.53,0.00,23.27,26.86,29.84,14.65,46.92,1030.78,2038.02,2925.83,2734.71,3086.03,599.67,603.46,45.37,0000 0000 0000 0000 000000
2016-09-12 03:37:18,0.04,1.53,0.00,23.34,26.88,29.86,14.57,46.78,1030.78,2038.00,2925.05,2734.03,3085.27,599.74,603.37,45.42,0000 0000 0000 0000 000000
2016-09-12 03:42:20,0.02,1.53,0.00,23.40,26.91,29.90,14.60,46.89,1030.78,2038.00,2924.28,2733.85,3084.93,599.59,603.10,45.47,0000 0000 0000 0000 000000
2016-09-12 03:47:21,0.05,1.54,0.00,23.42,26.93,29.92,14.72,46.95,1030.77,2038.00,2923.69,2733.09,3084.17,600.02,603.35,45.52,0000 0000 0000 0000 000000
2016-09-12 03:52:22,0.04,1.54,0.00,23.46,26.96,29.94,14.64,46.85,1030.77,2037.98,2922.97,2732.65,3083.56,599.96,603.35,45.57,0000 0000 0000 0000 000000
2016-09-12 03:57:24,0.03,1.54,0.00,23.54,26.98,29.97,14.63,46.77,1030.78,2037.94,2922.07,2732.02,3082.92,599.92,603.10,45.62,0000 0000 0000 0000 000000
2016-09-12 04:02:25,0.03,1.54,0.00,23.55,27.01,30.00,14.75,46.95,1030.76,2037.79,2921.17,2731.60,3082.11,600.49,603.54,45.67,0000 0000 0000 0000 000000
2016-09-12 04:07:26,-0.00,1.54,0.00,23.55,27.04,30.04,14.60,46.88,1030.64,2037.37,2920.48,2731.01,3081.55,600.18,603.42,45.72,0000 0000 0000 0000 000000
2016-09-12 04:12:28,0.03,1.54,0.00,23.52,27.06,30.08,14.64,46.93,1030.52,2037.06,2919.55,2730.34,3080.79,599.91,602.89,45.77,0000 0000 0000 0000 000000
2016-09-12 04:17:29,0.04,1.55,0.00,23.59,27.09,30.10,14.58,46.88,1030.46,2037.02,2918.57,2729.86,3080.01,599.84,602.87,45.82,0000 0000 0000 0000 000000
2016-09-12 04:22:30,0.04,1.55,0.00,23.63,27.11,30.11,14.68,46.91,1030.50,2037.00,2917.89,2729.09,3079.35,600.06,603.00,45.88,0000 0000 0000 0000 000000
2016-09-12 04:27:32,0.04,1.55,0.00,23.64,27.14,30.12,14.65,46.84,1030.51,2037.00,2917.02,2728.74,3078.75,600.20,603.12,45.93,0000 0000 0000 0000 000000
2016-09-12 04:32:33,0.04,1.55,0.00,23.69,27.16,30.15,14.59,46.78,1030.34,2036.98,2916.09,2728.02,3077.94,599.78,602.49,45.98,0000 0000 0000 0000 000000
2016-09-12 04:37:35,0.06,1.56,0.00,23.73,27.19,30.18,14.65,46.92,1030.41,2036.97,2915.08,2727.32,3077.07,600.15,602.69,46.03,0000 0000 0000 0000 000000
2016-09-12 04:42:36,0.04,1.56,0.00,23.76,27.21,30.23,14.70,47.00,1030.57,2036.98,2914.17,2726.83,3076.31,600.36,602.95,46.08,0000 0000 0000 0000 000000
2016-09-12 04:47:37,0.03,1.56,0.00,23.76,27.24,30.24,14.61,46.82,1030.61,2036.79,2913.32,2726.08,3075.58,600.09,602.78,46.13,0000 0000 0000 0000 000000
2016-09-12 04:52:39,0.01,1.56,0.00,23.81,27.27,30.24,14.60,46.85,1030.35,2036.31,2912.34,2725.44,3074.84,600.07,602.50,46.18,0000 0000 0000 0000 000000
2016-09-12 04:57:40,0.02,1.56,0.00,23.86,27.30,30.26,14.63,46.78,1030.45,2036.08,2911.27,2724.87,3073.94,599.99,602.43,46.23,0000 0000 0000 0000 000000
2016-09-12 05:02:41,0.06,1.57,0.00,23.87,27.32,30.29,14.64,46.98,1030.31,2036.03,2910.18,2724.08,3073.09,599.89,602.23,46.28,0000 0000 0000 0000 000000
2016-09-12 05:07:43,0.05,1.57,0.00,23.88,27.35,30.34,14.67,46.99,1030.34,2036.01,2909.27,2723.57,3072.35,600.17,602.46,46.33,0000 0000 0000 0000 000000
2016-09-12 05:12:44,0.03,1.57,0.00,23.96,27.37,30.36,14.58,47.00,1030.36,2036.00,2908.43,2723.00,3071.76,599.74,601.84,46.38,0000 0000 0000 0000 000000
2016-09-12 05:17:45,0.05,1.57,0.00,23.96,27.40,30.39,14.61,46.84,1030.37,2036.00,2907.56,2722.32,3071.02,599.77,602.10,46.43,0000 0000 0000 0000 000000
2016-09-12 05:22:47,0.06,1.57,0.00,23.97,27.42,30.39,14.66,46.92,1030.41,2035.99,2906.41,2721.64,3070.16,599.84,602.03,46.48,0000 0000 0000 0000 000000
2016-09-12 05:27:48,0.04,1.58,0.00,23.99,27.45,30.42,14.61,46.79,1030.32,2035.98,2905.40,2721.01,3069.27,599.64,601.71,46.53,0000 0000 0000 0000 000000
2016-09-12 05:32:50,0.06,1.58,0.00,24.02,27.47,30.45,14.62,46.90,1030.32,2035.95,2904.32,2720.26,3068.51,600.04,602.04,46.58,0000 0000 0000 0000 000000
2016-09-12 05:37:51,0.05,1.58,0.00,24.02,27.50,30.48,14.63,46.96,1030.33,2035.78,2902.94,2719.33,3067.35,600.25,602.37,46.63,0000 0000 0000 0000 000000
2016-09-12 05:42:52,0.00,1.58,0.00,24.03,27.52,30.50,14.63,46.87,1030.30,2035.34,2901.93,2718.71,3066.54,600.48,602.37,46.68,0000 0000 0000 0000 000000
2016-09-12 05:47:54,0.03,1.59,0.00,24.06,27.55,30.50,14.64,46.88,1030.30,2035.07,2900.85,2717.98,3065.66,599.92,601.79,46.74,0000 0000 0000 0000 000000
2016-09-12 05:52:55,0.05,1.59,0.00,24.08,27.58,30.55,14.58,46.98,1030.31,2035.01,2899.83,2717.24,3064.88,599.68,601.49,46.79,0000 0000 0000 0000 000000
2016-09-12 05:57:56,0.05,1.59,0.00,24.12,27.61,30.57,14.56,46.77,1030.32,2035.00,2898.81,2716.61,3064.03,599.73,601.67,46.84,0000 0000 0000 0000 000000
2016-09-12 06:02:57,0.05,1.59,0.00,24.14,27.63,30.59,14.58,46.98,1030.33,2035.00,2897.72,2715.93,3063.15,600.14,601.86,46.89,0000 0000 0000 0000 000000
2016-09-12 06:07:59,0.06,1.60,0.00,24.18,27.66,30.63,14.48,46.87,1030.30,2034.98,2896.64,2715.09,3062.24,599.69,601.27,46.94,0000 0000 0000 0000 000000
2016-09-12 06:13:00,0.06,1.60,0.00,24.17,27.69,30.63,14.58,46.85,1030.31,2034.97,2895.71,2714.47,3061.46,599.93,601.58,46.99,0000 0000 0000 0000 000000
2016-09-12 06:18:01,0.04,1.60,0.00,24.20,27.71,30.67,14.59,46.87,1030.31,2034.88,2894.60,2713.81,3060.54,599.84,601.46,47.04,0000 0000 0000 0000 000000
2016-09-12 06:23:02,0.02,1.60,0.00,24.23,27.74,30.70,14.56,46.72,1030.30,2034.65,2893.51,2713.05,3059.77,599.87,601.49,47.09,0000 0000 0000 0000 000000
2016-09-12 06:28:04,0.01,1.61,0.00,24.26,27.77,30.73,14.66,46.89,1030.31,2034.14,2892.42,2712.25,3058.94,600.07,601.58,47.14,0000 0000 0000 0000 000000
2016-09-12 06:33:05,0.04,1.61,0.00,24.29,27.80,30.74,14.56,46.86,1030.31,2034.05,2891.57,2711.76,3058.06,600.26,601.58,47.19,0000 0000 0000 0000 000000
2016-09-12 06:38:06,0.05,1.61,0.00,24.29,27.82,30.77,14.49,46.71,1030.30,2034.00,2890.38,2710.93,3057.10,599.66,601.14,47.24,0000 0000 0000 0000 000000
2016-09-12 06:43:07,0.06,1.61,0.00,24.30,27.85,30.81,14.61,47.05,1030.30,2034.00,2889.04,2710.06,3056.09,600.25,601.59,47.29,0000 0000 0000 0000 000000
2016-09-12 06:48:08,0.07,1.62,0.00,24.35,27.87,30.82,14.62,47.04,1030.30,2034.00,2887.94,2709.35,3055.32,600.32,601.63,47.34,0000 0000 0000 0000 000000
2016-09-12 06:53:10,0.04,1.62,0.00,24.39,27.89,30.86,14.60,47.03,1030.29,2033.98,2886.96,2708.83,3054.44,600.32,601.42,47.39,0000 0000 0000 0000 000000
2016-09-12 06:58:11,0.06,1.62,0.00,24.41,27.92,30.88,14.55,47.06,1030.30,2033.97,2885.89,2708.03,3053.53,599.36,600.59,47.44,0000 0000 0000 0000 000000
2016-09-12 07:03:12,0.06,1.62,0.00,24.41,27.94,30.89,14.59,47.01,1030.31,2033.92,2884.68,2707.31,3052.64,599.70,600.93,47.49,0000 0000 0000 0000 000000
2016-09-12 07:08:14,0.03,1.63,0.00,24.43,27.96,30.93,14.64,47.02,1030.30,2033.75,2883.62,2706.62,3051.76,600.14,601.30,47.54,0000 0000 0000 0000 000000
2016-09-12 07:13:15,0.02,1.63,0.00,24.41,27.99,30.95,14.62,47.01,1030.31,2033.21,2882.43,2705.79,3050.71,600.22,601.42,47.59,0000 0000 0000 0000 000000
2016-09-12 07:18:16,0.05,1.63,0.00,24.40,28.01,31.00,14.59,46.90,1030.33,2033.05,2880.95,2704.94,3049.69,599.73,600.81,47.64,0000 0000 0000 0000 000000
2016-09-12 07:23:17,0.06,1.63,0.00,24.39,28.03,30.99,14.63,46.91,1030.37,2033.03,2879.77,2704.07,3048.75,599.81,601.14,47.69,0000 0000 0000 0000 000000
2016-09-12 07:28:19,0.06,1.64,0.00,24.40,28.05,30.98,14.63,47.01,1030.49,2033.00,2878.65,2703.35,3047.83,599.99,601.31,47.75,0000 0000 0000 0000 000000
2016-09-12 07:33:20,0.06,1.64,0.00,24.42,28.07,31.05,14.62,46.92,1030.34,2033.00,2877.47,2702.56,3046.83,599.99,601.15,47.80,0000 0000 0000 0000 000000
2016-09-12 07:38:22,0.05,1.64,0.00,24.47,28.09,31.08,14.61,46.92,1030.33,2032.99,2876.29,2701.73,3045.84,599.98,601.08,47.85,0000 0000 0000 0000 000000
2016-09-12 07:43:23,0.06,1.65,0.00,24.50,28.11,31.08,14.54,46.84,1030.39,2032.98,2874.96,2700.94,3044.83,599.63,600.77,47.90,0000 0000 0000 0000 000000
2016-09-12 07:48:24,0.07,1.65,0.00,24.51,28.12,31.10,14.60,46.88,1030.50,2032.98,2873.61,2700.07,3043.80,599.98,601.12,47.95,0000 0000 0000 0000 000000
2016-09-12 07:53:25,0.06,1.65,0.00,24.47,28.14,31.12,14.58,46.90,1030.62,2032.93,2872.24,2699.19,3042.75,599.96,601.33,48.00,0000 0000 0000 0000 000000
2016-09-12 07:58:26,0.07,1.66,0.00,24.45,28.15,31.13,14.57,46.88,1030.64,2032.94,2870.91,2698.45,3041.70,600.00,601.34,48.05,0000 0000 0000 0000 000000
2016-09-12 08:03:28,0.06,1.66,0.00,24.47,28.17,31.16,14.61,46.92,1030.69,2032.77,2869.47,2697.51,3040.60,599.88,601.24,48.10,0000 0000 0000 0000 000000
2016-09-12 08:08:29,0.01,1.66,0.00,24.45,28.17,31.15,14.61,47.02,1030.76,2032.39,2868.24,2696.76,3039.72,599.72,601.10,48.15,0000 0000 0000 0000 000000
2016-09-12 08:13:31,0.04,1.67,0.00,24.44,28.20,31.18,14.55,46.81,1030.76,2032.19,2867.05,2696.01,3038.69,599.76,601.25,48.20,0000 0000 0000 0000 000000
2016-09-12 08:18:32,0.07,1.67,0.00,24.42,28.20,31.17,14.68,46.85,1030.71,2032.08,2865.77,2695.17,3037.70,600.24,601.64,48.25,0000 0000 0000 0000 000000
2016-09-12 08:23:33,0.07,1.67,0.00,24.42,28.21,31.21,14.67,46.87,1030.75,2032.04,2864.43,2694.42,3036.67,599.98,601.45,48.30,0000 0000 0000 0000 000000
2016-09-12 08:28:35,0.07,1.68,0.00,24.42,28.22,31.22,14.62,46.90,1030.75,2032.02,2863.07,2693.48,3035.57,600.20,601.74,48.35,0000 0000 0000 0000 000000
2016-09-12 08:33:36,0.05,1.68,0.00,24.44,28.23,31.18,14.61,46.98,1030.76,2032.01,2861.80,2692.84,3034.69,599.85,601.18,48.40,0000 0000 0000 0000 000000
2016-09-12 08:38:37,0.06,1.68,0.00,24.55,28.25,31.20,14.63,46.76,1030.59,2032.00,2860.62,2692.03,3033.76,600.34,601.45,48.45,0000 0000 0000 0000 000000
2016-09-12 08:43:39,0.06,1.68,0.00,24.52,28.25,31.24,14.63,46.98,1030.66,2032.00,2859.41,2691.14,3032.79,600.02,601.26,48.50,0000 0000 0000 0000 000000
2016-09-12 08:48:40,0.06,1.69,0.00,24.49,28.27,31.23,14.62,46.88,1030.72,2032.00,2858.17,2690.40,3031.91,600.31,601.59,48.55,0000 0000 0000 0000 000000
2016-09-12 08:53:42,0.06,1.69,0.00,24.53,28.27,31.25,14.64,47.01,1030.71,2032.00,2856.99,2689.73,3030.97,600.07,601.27,48.60,0000 0000 0000 0000 000000
2016-09-12 08:58:43,0.06,1.70,0.00,24.59,28.29,31.26,14.50,46.93,1030.64,2032.00,2855.76,2688.98,3030.00,599.83,600.86,48.66,0000 0000 0000 0000 000000
2016-09-12 09:03:45,0.07,1.70,0.00,24.60,28.30,31.28,14.61,46.94,1030.68,2031.99,2854.50,2688.13,3029.08,600.01,601.03,48.71,0000 0000 0000 0000 000000
2016-09-12 09:08:46,0.06,1.70,0.00,24.63,28.31,31.27,14.65,46.88,1030.61,2031.99,2853.34,2687.43,3028.12,600.30,601.27,48.76,0000 0000 0000 0000 000000
2016-09-12 09:13:48,0.05,1.70,0.00,24.66,28.32,31.28,14.66,46.93,1030.71,2031.99,2852.20,2686.83,3027.21,600.25,601.31,48.81,0000 0000 0000 0000 000000
2016-09-12 09:18:49,0.05,1.71,0.00,24.67,28.34,31.32,14.62,46.77,1030.66,2031.97,2851.07,2686.05,3026.36,600.21,601.07,48.86,0000 0000 0000 0000 000000
2016-09-12 09:23:50,0.07,1.71,0.00,24.69,28.35,31.31,14.62,46.65,1030.46,2031.96,2849.89,2685.31,3025.46,600.25,600.91,48.91,0000 0000 0000 0000 000000
2016-09-12 09:28:51,0.06,1.71,0.00,24.70,28.37,31.34,14.59,46.66,1030.52,2031.86,2848.72,2684.59,3024.56,600.02,600.80,48.96,0000 0000 0000 0000 000000
2016-09-12 09:33:53,0.01,1.72,0.00,24.70,28.38,31.38,14.60,46.72,1030.53,2031.54,2847.63,2683.88,3023.71,600.20,600.93,49.01,0000 0000 0000 0000 000000
2016-09-12 09:38:54,0.04,1.72,0.00,24.73,28.40,31.42,14.57,46.93,1030.37,2031.22,2846.50,2683.06,3022.88,600.06,600.65,49.06,0000 0000 0000 0000 000000
2016-09-12 09:43:56,0.05,1.72,0.00,24.72,28.42,31.42,14.66,46.99,1030.32,2031.13,2845.39,2682.41,3022.01,600.23,600.85,49.11,0000 0000 0000 0000 000000
2016-09-12 09:48:57,0.04,1.72,0.00,24.77,28.43,31.42,14.46,46.73,1030.38,2031.14,2844.34,2681.89,3021.12,599.57,600.05,49.16,0000 0000 0000 0000 000000
2016-09-12 09:53:59,0.05,1.73,0.00,24.78,28.45,31.43,14.56,46.83,1030.35,2031.05,2843.16,2681.05,3020.27,599.78,600.26,49.21,0000 0000 0000 0000 000000
2016-09-12 09:59:00,0.06,1.73,0.00,24.75,28.46,31.46,14.61,46.87,1030.35,2031.02,2841.98,2680.25,3019.38,600.22,600.74,49.26,0000 0000 0000 0000 000000
2016-09-12 10:04:02,0.04,1.73,0.00,24.76,28.47,31.45,14.60,46.82,1030.36,2031.00,2840.94,2679.77,3018.58,599.98,600.60,49.31,0000 0000 0000 0000 000000
2016-09-12 10:09:03,0.05,1.73,0.00,24.76,28.48,31.48,14.54,46.86,1030.40,2031.00,2839.85,2679.03,3017.75,599.83,600.36,49.36,0000 0000 0000 0000 000000
2016-09-12 10:14:05,0.06,1.74,0.00,24.73,28.50,31.51,14.58,46.84,1030.37,2031.00,2838.73,2678.27,3016.93,599.63,600.22,49.41,0000 0000 0000 0000 000000
2016-09-12 10:19:06,0.06,1.74,0.00,24.75,28.50,31.47,14.62,46.81,1030.40,2031.00,2837.68,2677.64,3016.08,600.16,600.68,49.46,0000 0000 0000 0000 000000
2016-09-12 10:24:07,0.05,1.74,0.00,24.71,28.50,31.46,14.64,46.89,1030.44,2030.99,2836.55,2676.98,3015.23,599.90,600.62,49.52,0000 0000 0000 0000 000000
2016-09-12 10:29:09,0.06,1.75,0.00,24.67,28.52,31.45,14.65,46.89,1030.46,2030.99,2835.53,2676.26,3014.46,600.47,601.22,49.57,0000 0000 0000 0000 000000
2016-09-12 10:34:10,0.04,1.75,0.00,24.65,28.52,31.44,14.60,46.87,1030.37,2030.99,2834.50,2675.82,3013.74,599.90,600.65,49.62,0000 0000 0000 0000 000000
2016-09-12 10:39:12,0.05,1.75,0.00,24.65,28.52,31.45,14.63,46.88,1030.36,2030.99,2833.45,2675.02,3012.92,599.98,600.64,49.67,0000 0000 0000 0000 000000
2016-09-12 10:44:13,0.06,1.75,0.00,24.64,28.52,31.45,14.55,46.81,1030.32,2030.98,2832.39,2674.30,3012.06,599.81,600.50,49.72,0000 0000 0000 0000 000000
2016-09-12 10:49:14,0.05,1.76,0.00,24.65,28.53,31.48,14.67,46.85,1030.30,2030.98,2831.28,2673.74,3011.22,600.36,601.19,49.77,0000 0000 0000 0000 000000
2016-09-12 10:54:16,0.04,1.76,0.00,24.68,28.55,31.50,14.63,46.98,1030.29,2030.96,2830.21,2673.00,3010.48,599.92,600.56,49.82,0000 0000 0000 0000 000000
2016-09-12 10:59:17,0.06,1.76,0.00,24.69,28.55,31.52,14.58,46.81,1030.29,2030.93,2829.09,2672.20,3009.68,599.92,600.65,49.87,0000 0000 0000 0000 000000
2016-09-12 11:04:18,0.05,1.77,0.00,24.72,28.55,31.53,14.58,46.92,1030.29,2030.90,2827.89,2671.67,3008.76,599.99,600.65,49.92,0000 0000 0000 0000 000000
2016-09-12 11:09:19,0.05,1.77,0.00,24.73,28.56,31.53,14.57,46.85,1030.29,2030.76,2826.70,2670.90,3007.89,599.79,600.32,49.97,0000 0000 0000 0000 000000
2016-09-12 11:14:21,0.03,1.77,0.00,24.73,28.57,31.53,14.56,46.95,1030.28,2030.55,2825.51,2670.06,3007.03,599.87,600.45,50.02,0000 0000 0000 0000 000000
2016-09-12 11:19:22,0.07,1.77,0.00,24.75,28.57,31.54,14.58,46.87,1030.29,2030.42,2824.30,2669.32,3006.22,600.02,600.52,50.07,0000 0000 0000 0000 000000
2016-09-12 11:24:23,0.06,1.78,0.00,24.75,28.57,31.54,14.58,46.92,1030.28,2030.37,2823.07,2668.72,3005.26,599.93,600.43,50.12,0000 0000 0000 0000 000000
2016-09-12 11:29:25,0.03,1.78,0.00,24.78,28.59,31.56,14.64,46.86,1030.28,2030.15,2821.87,2667.98,3004.36,600.17,600.58,50.17,0000 0000 0000 0000 000000
2016-09-12 11:34:26,0.07,1.78,0.00,24.81,28.60,31.57,14.54,46.90,1030.24,2030.10,2820.69,2667.13,3003.51,599.92,600.33,50.22,0000 0000 0000 0000 000000
2016-09-12 11:39:27,0.06,1.78,0.00,24.79,28.60,31.59,14.54,46.88,1030.20,2030.09,2819.49,2666.44,3002.59,600.03,600.43,50.27,0000 0000 0000 0000 000000
2016-09-12 11:44:28,0.05,1.79,0.00,24.80,28.61,31.59,14.53,46.78,1030.12,2030.05,2818.33,2665.71,3001.69,599.95,600.25,50.32,0000 0000 0000 0000 000000
2016-09-12 11:49:29,0.06,1.79,0.00,24.81,28.62,31.62,14.51,46.86,1030.17,2030.02,2816.94,2664.93,3000.64,599.88,600.21,50.37,0000 0000 0000 0000 000000
2016-09-12 11:54:30,0.07,1.79,0.00,24.80,28.62,31.62,14.61,46.74,1029.96,2030.01,2815.71,2664.07,2999.72,600.10,600.31,50.42,0000 0000 0000 0000 000000
2016-09-12 11:59:32,0.07,1.80,0.00,24.79,28.63,31.62,14.53,46.72,1029.83,2030.00,2814.41,2663.24,2998.64,599.87,600.06,50.48,0000 0000 0000 0000 000000
2016-09-12 12:04:33,0.07,1.80,0.00,24.81,28.65,31.64,14.63,46.91,1029.85,2030.00,2812.96,2662.25,2997.58,600.09,600.19,50.53,0000 0000 0000 0000 000000
2016-09-12 12:09:34,0.07,1.81,0.00,24.82,28.65,31.67,14.60,46.77,1029.84,2030.00,2811.62,2661.52,2996.58,600.15,600.25,50.58,0000 0000 0000 0000 000000
2016-09-12 12:14:36,0.07,1.81,0.00,24.82,28.65,31.66,14.59,46.89,1029.91,2030.00,2810.24,2660.63,2995.49,599.88,600.01,50.63,0000 0000 0000 0000 000000
2016-09-12 12:19:37,0.07,1.81,0.00,24.81,28.67,31.65,14.55,46.73,1030.14,2030.00,2808.77,2659.85,2994.43,599.91,600.13,50.68,0000 0000 0000 0000 000000
2016-09-12 12:24:39,0.08,1.82,0.00,24.81,28.67,31.67,14.63,46.98,1030.19,2030.00,2807.14,2658.90,2993.23,599.75,600.04,50.73,0000 0000 0000 0000 000000
2016-09-12 12:29:40,0.07,1.82,0.00,24.80,28.67,31.69,14.53,46.82,1030.18,2030.00,2805.64,2657.98,2992.10,599.78,600.13,50.78,0000 0000 0000 0000 000000
2016-09-12 12:34:41,0.07,1.83,0.00,24.82,28.68,31.67,14.57,46.67,1030.13,2030.00,2804.25,2657.09,2991.06,600.18,600.42,50.83,0000 0000 0000 0000 000000
2016-09-12 12:39:43,0.08,1.83,0.00,24.83,28.70,31.67,14.51,46.70,1030.09,2030.00,2802.69,2656.21,2989.94,599.83,600.03,50.88,0000 0000 0000 0000 000000
2016-09-12 12:44:44,0.07,1.83,0.00,24.83,28.70,31.69,14.48,46.60,1029.98,2030.00,2801.37,2655.41,2988.91,599.82,599.97,50.93,0000 0000 0000 0000 000000
2016-09-12 12:49:45,0.07,1.84,0.00,24.84,28.70,31.72,14.64,46.67,1029.87,2030.00,2799.98,2654.44,2987.87,600.30,600.35,50.98,0000 0000 0000 0000 000000
2016-09-12 12:54:47,0.07,1.84,0.00,24.84,28.70,31.69,14.63,46.85,1029.83,2029.99,2798.59,2653.67,2986.86,600.00,600.09,51.03,0000 0000 0000 0000 000000